Regional Weather Roundup
Issued by NWS Midland/Odessa, TX

Home | Current Version | Previous Version | Text Only | Print | Product List | Glossary On
Versions: 1 2 3 4 5 6 7 8 9 10 11 12 13 14 15 16 17 18 19 20 21 22 23 24 25 26 27 28 29 30 31 32 33 34 35 36 37 38 39 40 41 42 43 44 45 46 47 48 49 50
000
ASUS44 KMAF 171610
RWRMAF
MIDLAND AREA WEATHER ROUNDUP
NATIONAL WEATHER SERVICE MIDLAND TX
1100 AM CDT WED SEP 17 2014

...IN SOUTHWEST TEXAS AND SOUTHEAST NEW MEXICO...

CITY           SKY/WX    TMP DP  RH WIND       PRES   REMARKS
ALPINE         MOSUNNY   72  62  69 CALM      30.20S
ANDREWS        CLOUDY    74  67  77 CALM      30.09S
ARTESIA        NOT AVBL
BIG SPRING     PTSUNNY   79  69  71 S7        30.08F
CARLSBAD       PTSUNNY   74  71  91 SE6       30.08R
DRYDEN           N/A     81  72  74 E5        30.02S
FORT STOCKTON  MOSUNNY   76  67  73 S15       30.08R
GUAD PASS      MOSUNNY   70  60  70 SW9       30.21S
HOBBS          MOSUNNY   73  68  83 SE8       30.11F
MARFA          MOSUNNY   72  61  68 SE6       30.19S
MIDLAND AIRPK  NOT AVBL
MIDLAND INTL   PTSUNNY   78  67  68 SW8       30.07S
ODESSA         PTSUNNY   76  67  73 S8        30.08S
PECOS          MOSUNNY   75  65  70 S5        30.05S
PRESIDIO       FAIR      80  62  54 E6        30.04S
SEMINOLE       MOSUNNY   73  66  78 S7        30.11S
SNYDER         PTSUNNY   74  69  84 SW8       30.06S
WINK           PTSUNNY   80  67  64 S10       30.05S
$$
...OTHER STATIONS IN TEXAS...

CITY           SKY/WX    TMP DP  RH WIND       PRES   REMARKS
ABILENE        MOSUNNY   85  69  58 SW6       30.02F
AMARILLO       PTSUNNY   75  64  68 SW14      30.09S
AUSTIN         PTSUNNY   81  75  82 S6        29.98S
BROWNSVILLE    MOSUNNY   87  78  74 S12       29.96S HX 100
CORPUS CHRISTI PTSUNNY   85  75  72 S14       29.95S
DALLAS FTW     PTSUNNY   83  70  64 CALM      29.97S
DEL RIO        PTSUNNY   81  73  76 SE6       29.96S
EL PASO        CLOUDY    70  63  78 NE3       30.09R
HOUSTON INT    PTSUNNY   85  76  74 VRB3      29.96F
LUBBOCK        CLOUDY    72  66  81 SW7       30.09S
SAN ANGELO     PTSUNNY   82  69  64 SW5       30.02S
SAN ANTONIO    PTSUNNY   84  75  74 S8        29.98S
WACO           CLOUDY    80  72  76 W6        29.99S
WICHITA FALLS  NOT AVBL
$$
...OTHER LOCATIONS IN NEW MEXICO...

CITY           SKY/WX    TMP DP  RH WIND       PRES   REMARKS
ALAMAGORDO     CLOUDY    66  61  82 CALM      30.14R
ALBUQUERQUE    LGT RAIN  62  59  90 NW3       30.21R
CANNON AFB     LGT RAIN  66  63  90 S7        30.15R
CLOVIS           N/A     66  63  88 SW13      30.16S
HOLLOMAN AFB   PTSUNNY   67  63  86 CALM      30.12R
ROSWELL        CLOUDY    71  65  81 N5        30.11R
RUIDOSO        CLOUDY    57  57 100 SE5       30.28S
SANTA FE       CLOUDY    61  52  72 CALM      30.25R
TRUTH OR CONSE LGT RAIN  64  61  90 CALM      30.16R
TUCUMCARI      CLOUDY    74  61  63 SW18      30.10S
$$


USA.gov is the U.S. government's official web portal to all federal, state and local government web resources and services.